Theta_e
283 285 285 284 284 284 284 286 288 288 289 288 287 288 289 290 290 291 293 294 297 298 298 298 298 301 302 304 303 320 318 318 318 315 315 316 317 317 317 319 318 317 318
282 284 283 283 283 283 284 287 287 288 288 288 288 289 287 287 289 290 292 294 295 296 298 297 297 299 301 301 303 303 318 318 318 314 312 306 308 314 315 316 316 317 316
282 282 283 282 282 282 283 286 287 287 287 287 286 285 285 284 284 287 288 290 291 294 297 297 297 297 298 300 301 301 303 314 316 317 312 304 304 307 303 313 314 314 315
282 282 282 281 281 283 284 285 286 286 286 284 282 280 278 277 279 280 282 283 289 292 296 297 296 295 295 294 301 302 301 308 313 316 315 309 308 305 299 301 312 313 314
281 280 282 283 283 284 283 283 284 284 284 283 281 279 277 278 278 278 278 280 284 289 291 294 294 294 294 295 298 301 300 299 315 314 313 306 308 309 307 301 299 310 313
280 280 283 283 283 282 282 283 283 282 282 281 280 278 276 276 276 276 276 279 282 284 287 292 295 295 295 295 296 298 301 300 311 316 314 309 306 305 307 306 303 306 298
279 280 280 281 282 281 282 283 282 281 281 279 278 278 276 276 275 275 276 277 278 280 282 286 289 294 295 295 295 296 299 300 297 315 314 311 309 309 309 307 304 297 293
280 280 280 280 281 281 282 282 281 280 280 278 278 277 276 275 275 276 276 275 276 278 282 283 286 293 294 294 294 295 298 300 299 313 313 311 310 310 309 307 303 293 289
279 280 280 280 280 280 281 280 280 279 278 277 277 276 276 274 273 274 274 275 277 278 279 283 286 287 294 293 293 293 295 300 299 313 313 310 310 310 310 308 308 304 293
279 279 279 280 280 280 280 280 279 278 277 277 276 276 275 274 274 273 274 274 274 276 278 280 281 285 291 293 292 291 293 297 299 299 312 310 310 309 309 307 307 307 305
279 279 279 279 280 279 278 279 278 276 275 275 275 275 274 274 273 272 272 273 275 275 276 277 280 282 283 291 291 291 291 293 297 297 310 309 309 308 307 306 307 306 307
279 278 278 278 278 278 278 277 276 275 274 274 274 274 273 273 272 271 271 272 272 273 275 275 277 279 282 287 290 290 290 290 292 297 307 307 307 307 307 306 307 306 307
278 278 278 277 277 276 276 275 274 273 273 272 272 272 272 271 271 271 271 272 272 271 272 273 276 278 281 282 290 290 290 289 290 296 296 307 306 306 306 306 306 307 306
277 277 276 276 276 275 274 273 272 272 271 271 270 270 271 271 270 271 270 270 271 271 271 273 275 277 278 280 282 289 289 289 290 294 295 306 306 306 305 305 305 305 304
276 275 275 275 275 274 273 272 272 271 270 269 269 270 271 271 270 270 270 270 270 271 271 273 276 276 277 278 280 286 288 288 288 289 293 306 305 302 305 305 304 304 301
275 276 276 275 274 273 272 272 270 269 269 268 269 270 270 270 269 268 268 269 269 269 270 270 271 274 277 278 282 283 287 288 287 287 292 303 299 298 301 303 303 303 295
275 275 274 273 272 271 271 269 268 269 268 268 268 268 269 267 267 267 267 267 267 268 269 269 270 272 275 279 281 284 284 287 288 287 288 292 302 299 301 300 300 300 300
274 273 272 271 270 270 269 268 268 267 267 267 267 268 266 265 265 265 265 266 267 267 268 268 269 271 275 279 280 283 283 285 287 287 287 289 300 301 300 298 296 296 298
273 272 271 270 269 269 268 267 266 266 265 265 266 265 265 263 263 263 264 266 266 267 267 268 268 269 272 278 280 281 285 286 286 287 288 290 299 299 299 297 294 294 295
271 270 270 269 268 267 267 265 264 264 263 264 264 264 263 261 262 264 266 267 268 270 271 270 270 270 271 278 280 283 285 284 285 287 288 290 299 297 298 296 294 292 293
270 269 268 267 266 266 265 263 262 262 263 263 262 262 261 262 264 265 266 267 268 270 271 270 270 271 274 276 281 284 284 285 285 287 289 295 297 296 297 298 294 295 293
268 268 266 265 265 265 263 261 260 262 261 261 259 259 261 263 264 264 265 266 267 269 272 269 270 273 276 279 281 285 287 287 286 287 292 297 296 296 297 297 297 297 293
267 267 264 263 263 263 262 259 260 260 259 256 256 259 262 262 263 263 263 264 266 268 271 273 275 276 278 278 282 284 286 288 288 289 293 297 295 296 296 297 296 292 293
265 264 262 261 260 261 260 259 259 258 255 254 257 261 261 261 262 263 264 264 265 266 269 270 271 275 281 283 285 286 287 288 288 290 294 296 296 296 297 295 294 293 294
263 262 260 260 259 259 258 257 256 255 254 256 259 260 260 260 261 262 262 264 266 268 267 269 270 271 275 280 287 289 288 289 290 291 291 292 294 294 295 295 294 294 293
261 260 259 258 257 256 256 255 254 253 252 255 257 259 259 259 260 260 260 264 266 268 269 272 271 270 276 279 285 288 289 292 293 290 290 291 292 293 294 293 292 294 292
Wind_Speed
3 6 6 7 7 8 7 8 12 15 13 12 14 14 13 13 15 14 17 16 13 11 9 5 9 10 12 17 18 13 20 16 14 11 8 9 11 10 8 9 6 5 3
4 4 4 6 6 6 7 11 13 15 15 12 12 12 15 15 15 16 17 15 15 16 10 6 7 9 11 16 17 19 15 16 17 12 10 7 4 8 10 9 10 11 4
5 3 5 6 7 8 7 12 14 14 14 16 13 13 13 13 14 13 14 13 19 16 13 8 6 5 8 13 13 14 23 10 13 18 9 7 8 10 1 13 9 10 6
5 3 3 4 5 7 6 10 10 12 14 16 15 18 14 17 15 16 15 17 21 19 15 12 5 5 4 15 13 8 17 23 16 15 14 6 10 13 6 1 9 10 11
6 1 5 6 6 6 7 7 6 11 13 13 14 13 16 14 14 14 19 20 15 20 18 16 8 5 6 8 17 15 14 15 15 16 17 6 10 12 15 11 6 8 11
4 2 6 7 7 5 7 6 9 13 14 13 15 16 17 19 16 17 15 13 14 12 17 17 12 7 6 7 13 14 17 22 21 17 18 14 15 13 15 14 12 14 3
3 5 8 7 7 9 8 9 12 16 15 15 15 15 17 18 19 18 13 16 13 13 15 17 19 9 7 6 12 17 14 13 18 23 19 13 13 14 14 13 12 6 2
5 7 6 8 8 6 11 12 13 16 16 16 17 15 16 11 14 15 14 13 14 14 18 17 18 21 8 7 8 12 12 10 18 22 17 15 14 15 16 13 16 7 2
3 6 7 6 7 6 12 10 14 16 16 17 16 17 16 17 17 16 18 13 15 15 19 18 15 21 10 8 6 8 15 10 18 15 18 17 15 14 14 14 18 18 8
3 4 6 7 4 6 8 10 12 16 17 18 16 16 19 18 16 16 19 16 19 20 19 17 18 16 19 7 7 8 12 14 11 12 23 21 16 16 14 15 15 16 13
6 6 6 6 5 6 7 11 13 16 17 16 18 18 19 19 17 16 16 17 17 18 19 19 19 16 15 13 8 9 13 13 14 19 18 25 21 15 14 14 14 13 12
3 4 7 5 5 8 11 12 14 16 16 16 18 18 19 20 19 17 18 18 18 16 19 17 19 18 16 19 9 8 9 14 15 15 13 20 16 21 18 16 19 16 14
5 6 3 5 7 9 11 13 15 17 17 17 18 19 19 19 19 19 18 18 18 18 20 18 19 16 17 15 11 8 8 11 14 17 14 21 22 19 17 18 17 15 12
2 2 5 6 7 9 12 14 17 16 19 19 20 20 20 20 19 18 20 19 18 18 18 18 18 14 16 15 15 10 9 10 13 16 19 23 25 23 21 19 20 17 15
3 4 6 9 10 12 13 15 16 18 18 20 20 20 21 21 20 19 18 19 18 18 17 19 16 15 14 12 15 14 11 9 12 15 15 22 25 29 27 17 18 19 14
3 5 8 11 13 14 16 18 18 19 20 21 21 21 21 21 21 20 19 20 20 18 18 18 17 18 12 20 27 23 14 11 9 12 15 16 25 23 30 30 31 27 20
3 5 8 9 11 13 15 17 19 19 19 21 21 21 22 23 21 21 20 20 19 18 19 18 18 18 17 25 27 27 17 13 11 11 13 14 18 23 21 25 27 31 34
3 6 7 8 11 12 14 17 17 18 19 20 21 21 22 23 22 21 20 20 18 18 18 17 17 18 16 26 27 29 18 17 14 13 13 15 20 23 24 21 21 21 22
1 2 5 9 11 13 15 17 19 18 19 20 21 22 22 23 22 21 22 20 19 18 17 16 17 17 16 27 27 27 16 14 13 11 14 14 17 27 32 22 20 19 16
3 4 7 9 11 13 15 16 18 19 20 22 23 23 23 22 22 22 21 18 18 19 15 17 15 18 18 26 28 22 12 9 10 11 13 18 22 32 33 23 21 21 17
4 5 5 7 10 12 13 15 17 17 20 21 22 22 21 21 20 21 18 18 19 19 16 15 15 15 17 17 27 27 11 9 10 10 10 9 29 36 36 31 23 23 18
3 4 6 8 10 11 12 15 16 18 19 20 21 21 20 17 17 20 18 18 17 18 11 12 13 12 13 19 23 26 26 19 13 11 10 12 30 37 37 29 30 31 25
2 3 4 7 8 10 11 14 17 19 20 19 20 18 20 17 17 18 18 15 15 13 15 13 9 8 8 10 24 28 28 27 18 10 15 16 28 36 33 33 31 26 16
1 3 5 7 9 9 12 12 15 17 17 18 19 18 18 19 17 14 13 13 13 14 14 14 14 13 8 9 8 10 12 22 15 18 15 15 22 27 24 20 22 17 17
2 2 3 5 8 10 11 11 15 16 16 16 17 17 14 16 17 14 14 14 14 17 14 13 12 14 13 13 17 11 9 10 12 12 7 9 14 15 13 14 16 15 15
3 2 4 6 8 10 11 12 13 14 14 15 13 14 14 14 14 15 15 23 28 28 25 29 19 13 22 29 23 21 20 20 21 10 10 10 12 14 14 14 15 14 17
Wind_Direction
109 78 60 25 7 348 331 333 345 344 338 335 327 319 316 318 309 299 289 280 278 278 269 271 294 304 296 284 304 230 204 197 184 178 186 192 188 186 177 169 160 161 227
87 79 47 20 351 331 325 342 344 345 341 333 326 325 314 311 311 313 308 299 285 279 256 254 277 299 298 297 282 307 241 186 176 179 167 172 177 187 175 176 188 186 151
114 57 20 354 343 329 323 341 344 342 339 337 323 320 313 308 312 313 316 317 307 293 269 234 245 280 310 283 274 279 300 222 175 183 174 163 188 148 111 185 179 174 173
107 66 339 303 317 297 325 340 338 338 333 332 326 323 317 312 312 306 306 310 315 301 285 263 219 273 267 297 250 272 266 289 183 182 199 174 155 168 145 74 185 171 174
124 43 300 288 287 298 323 339 325 322 325 329 327 321 311 303 305 301 308 302 297 310 298 278 231 220 279 294 286 262 278 287 223 186 183 159 168 178 165 161 161 173 175
128 275 267 269 268 270 357 325 317 320 323 327 325 311 306 304 302 303 302 306 298 300 301 306 249 215 236 277 296 304 271 254 263 191 179 175 171 171 173 161 163 161 140
187 248 262 263 342 349 328 319 319 320 321 320 318 309 307 301 303 302 300 301 305 299 296 301 306 240 233 270 279 289 282 282 294 199 183 175 174 171 172 157 154 146 103
208 239 274 357 327 316 323 319 323 315 315 315 313 312 305 299 303 294 302 295 292 289 294 295 293 292 221 241 301 281 291 269 282 212 181 173 175 174 175 173 155 123 110
237 359 331 308 304 307 323 316 313 311 313 313 312 313 308 308 297 302 296 288 287 292 296 289 289 313 246 238 265 280 278 276 279 227 193 178 174 175 177 167 172 164 151
348 278 266 280 276 314 301 303 307 313 313 311 312 310 312 306 300 304 293 305 296 289 288 292 295 290 296 224 252 284 293 282 271 287 207 182 175 171 171 171 172 173 169
226 246 287 284 297 294 301 308 313 314 313 313 311 310 310 307 301 300 299 298 298 307 304 302 294 300 298 261 225 252 278 284 277 295 210 172 176 165 165 170 175 165 168
246 282 284 276 306 314 315 312 314 315 314 310 309 307 310 309 303 298 300 296 291 292 289 293 291 290 286 290 246 257 277 284 305 275 195 181 174 168 163 167 171 172 161
229 249 275 332 322 314 312 316 317 315 314 313 309 310 312 308 307 302 301 298 293 294 288 286 281 283 287 293 257 260 276 289 287 279 310 185 170 176 165 166 164 165 154
241 9 346 313 318 318 317 317 317 318 316 314 314 312 314 310 306 303 300 295 291 289 286 284 275 271 282 281 293 261 262 285 279 284 296 187 176 175 167 169 168 165 156
25 358 325 324 322 322 321 319 319 317 316 314 313 312 314 310 307 305 303 300 295 289 292 286 285 276 274 274 266 277 259 266 287 312 304 185 179 178 173 164 162 158 158
24 347 325 319 325 329 322 321 320 319 319 313 313 315 314 313 313 307 303 300 295 287 282 284 280 279 267 270 268 264 276 263 272 293 276 246 176 172 176 167 164 159 153
342 320 321 319 323 324 323 318 316 317 314 312 315 316 319 314 314 312 306 300 295 291 283 278 275 272 267 266 267 261 258 263 261 270 288 292 186 172 174 164 161 165 164
2 325 313 324 325 323 320 317 317 316 314 315 315 320 318 314 313 310 305 299 293 286 279 276 273 271 272 265 261 253 250 253 246 260 275 278 192 177 175 162 162 169 170
126 299 331 327 323 329 328 321 317 318 318 316 321 320 320 312 310 306 302 295 287 280 273 269 267 264 265 263 263 259 254 232 239 246 256 252 210 173 173 164 162 166 171
75 6 342 334 328 326 326 323 319 322 319 325 321 319 316 309 307 304 312 304 295 288 273 269 260 256 261 254 259 255 242 227 243 249 255 242 207 170 175 168 168 167 171
41 4 353 331 319 323 327 323 319 318 323 318 317 314 311 307 309 313 313 310 304 294 273 256 257 251 251 252 257 248 245 231 243 246 255 241 186 171 176 175 178 178 156
19 1 343 328 325 331 332 320 318 324 321 321 316 312 312 318 319 318 321 320 316 311 291 263 265 251 244 241 256 246 239 238 234 234 246 215 181 173 178 176 177 169 158
8 359 324 315 330 334 333 322 322 326 323 320 316 316 322 326 324 328 328 329 328 334 325 328 266 248 233 235 242 244 245 242 239 236 244 199 181 176 180 179 176 161 166
93 2 339 334 332 331 331 326 327 328 323 321 321 326 330 330 332 335 335 333 334 336 334 339 337 326 270 246 232 226 233 237 228 227 230 182 179 179 181 179 170 168 173
85 11 346 333 331 335 334 337 337 334 327 325 325 331 333 335 335 344 338 339 339 336 340 337 340 327 327 324 292 251 243 223 210 203 181 173 180 179 181 181 173 178 176
84 4 341 338 335 340 339 342 337 336 327 326 332 338 337 338 341 341 340 348 348 347 353 343 354 324 334 335 314 267 281 238 196 175 175 181 186 181 179 175 174 179 177